STARLINK-11266, 60732

Orbit data source: Space-Track

STARLINK-11266, 60732 is a payload satellite owned by SpaceX/Seattle (US) in LEO that was launched on Wed, 28 Aug 2024 UTC via an FALCON 9 launch vehicle from the Air Force Eastern Test Range (AFETR). Payloads include a variety of satellites, spacecraft, and rockets equipped with specific instruments for various scientific and technological missions. These include communications satellites like Starlink; space stations such as the ISS; scientific satellites like the Hubble; Earth observation satellites from companies like Planet Labs, Umbra, and HawkEye 360; GPS; miniature CubeSats for education and research; and military/defense satellites.

Not visible in the next 10 days
STARLINK-11266 details
Identifier
60732, 2024-152N
Orbit
LEO
Last TLE update20 hours ago
Origin
Flag of USSpaceX/Seattle (US)
ManufacturerSpaceX/Seattle
MissionOperational Commercial Communications
Bus & MotorSTARLINK V2M, Unknown motor
Mass730 kg wet, ~700 kg dry
Launch date (UTC)
2024-08-28 (6 months ago)
Launch vehicle
FALCON 9
Launch site
Air Force Eastern Test Range (AFETR)
Object type
Payload
Rocket body
Debris
Shape & HBRBox + 2 Pan, 29 m
Radar Cross Section36.964 m², Large (>1 m²)

Expand to show TLE details & history

TLE from 20 hours ago
0 STARLINK-11266
1 60732U 24152N   25043.80184934  .00000456  00000-0  86254-5 0  9998
2 60732  53.1602 237.8891 0001349  91.9374 268.1798 15.69700698 27602
Epoch: 2025-02-12T19:14Z
Definitive object data (Epoch: 2025-02-12T19:14:39.782Z)
Latitude-0.00008°
Longitude166.13618°
Altitude360.697 km
Speed7.694 km/s
True Right ascension15h 51m 33s
True Declination0° 00' 00"
Sunlit
Object was in daylight at TLE epoch
Visualization TLE readout
Latitude41.79479°
Longitude-59.80929°
Altitude362.92 km
Speed7.697 km/s
Apparent Right ascension03h 27m 52s
Apparent Declination3° 02' 16"
Sunlit
Object is in daylight
Visualization observer readout
Local Sidereal Time18:13:17
Azimuth51.67° ENE
Elevation-32.746°
Doppler factor1
Orbital elements
Apogee altitude360.923 km
Perigee altitude359.105 km
Semi-major axis6,738.151 km
Eccentricity0.0001349
Inclination53.1602°
RAAN237.8891°
Arg. of periapsis91.9374°
True anomaly268.16435°
Mean anomaly268.1798°
Eccentric anomaly268.17207°
Mean motion3.92403 °/min
BSTAR0.0000086254
Orbital period91.74 mins
Loading maneuver chart data...
Loading historical data...
Loading historical data...
Loading historical data...
Loading historical data...
Loading historical data...
Loading historical data...
Loading historical data...

STARLINK-11266 Visibility forecast

Observer location: undefined°, undefined

STARLINK-11266 is not visible in the next 10 days
Span
Click to sort rows by Start time (UTC) header in descending order
Start Az.
Max El. time (UTC)
Max El. Az.
Max El.
End time (UTC)
End Az.
|